Wind_Speed
23 22 21 22 22 21 21 22 22 21 19 18 17 16 15 14 12 11 10 9 8 8 8 8 8 8 9 9 9 9 9 8 8 8 7 7 7 7 7 7 7 6 6 5 5 4 4 4 4
22 21 21 21 22 21 22 23 23 21 20 19 18 17 15 13 12 10 9 8 8 7 8 8 8 8 8 9 9 8 8 8 8 8 8 8 8 7 7 7 7 6 5 5 5 4 4 4 4
21 20 20 21 21 22 23 24 23 22 20 20 19 18 16 13 12 10 9 8 7 7 7 8 8 8 8 8 8 8 8 8 8 8 8 8 8 8 7 7 7 6 5 5 5 4 4 4 4
20 20 20 21 21 22 23 23 24 23 21 20 20 19 17 14 12 10 9 8 7 7 8 8 8 8 8 8 8 8 7 8 8 8 8 8 8 7 7 7 7 6 5 5 4 4 4 4 4
19 19 20 20 21 22 23 24 24 23 21 20 20 19 17 15 12 10 9 8 7 7 8 8 8 8 8 8 7 7 7 7 7 8 8 8 7 7 8 7 7 6 5 5 4 5 4 5 5
19 19 20 21 22 23 24 24 24 23 21 20 20 19 17 15 13 11 10 8 7 8 8 8 7 7 7 7 7 7 7 7 7 7 8 7 8 7 7 6 6 5 5 4 4 5 5 6 6
18 18 20 22 23 23 24 24 24 22 20 20 19 19 17 15 14 12 10 9 8 8 8 7 7 7 6 6 6 6 7 7 7 7 8 8 7 6 6 5 5 5 5 5 5 5 5 5 5
17 18 20 22 23 23 24 24 23 23 21 20 19 19 18 16 14 12 11 10 9 9 8 7 6 6 5 6 6 6 6 6 7 7 7 7 6 6 6 5 5 4 4 4 5 5 5 5 5
16 18 20 22 22 23 23 23 22 22 21 19 19 19 18 16 14 12 11 11 10 10 8 6 5 5 5 5 6 5 6 6 6 6 6 5 6 5 5 5 5 4 4 4 4 5 5 5 5
15 18 19 20 21 22 22 23 22 22 21 20 19 19 18 17 15 13 12 12 11 10 10 8 6 5 5 5 5 5 5 6 6 5 5 5 5 5 5 5 5 4 4 4 5 5 6 5 5
14 17 18 20 21 22 22 23 23 22 22 21 20 19 18 17 15 14 13 12 12 11 10 9 7 6 5 4 4 5 5 5 5 5 5 5 5 5 5 4 4 4 4 4 4 5 5 5 5
12 15 17 19 20 21 22 22 23 23 22 21 20 20 19 18 16 15 14 13 13 12 11 9 8 6 5 4 4 4 4 4 5 5 4 4 4 4 4 4 4 4 4 4 4 4 4 4 4
10 13 15 17 19 20 21 22 22 22 22 21 20 20 19 19 18 16 15 15 14 13 12 10 8 6 6 5 4 3 3 4 4 4 4 3 4 3 3 3 3 4 4 4 3 3 4 3 3
8 11 13 15 17 18 19 20 21 22 22 21 20 20 20 20 19 17 17 16 14 13 12 11 10 8 7 5 3 3 3 3 3 3 3 3 3 2 2 2 3 4 4 4 3 3 3 3 3
5 7 10 12 14 16 18 19 20 20 20 20 19 19 20 21 20 18 17 16 14 13 12 11 9 9 7 5 4 3 2 2 3 2 2 2 2 2 3 3 3 4 3 3 3 3 3 3 2
3 4 6 9 11 13 15 17 17 18 18 18 18 19 19 20 20 18 17 16 15 13 12 10 9 8 7 6 5 3 2 2 2 1 1 1 2 2 3 3 3 3 4 3 3 3 3 3 3
1 2 3 6 9 10 12 15 16 16 16 16 17 18 19 19 20 19 17 16 15 14 12 11 9 8 7 6 5 4 2 1 0 0 1 1 2 2 3 4 4 4 4 4 4 4 4 4 4
3 2 2 4 6 8 10 12 13 15 15 15 16 17 18 18 18 18 17 16 15 14 13 12 11 9 8 7 5 4 2 1 1 1 2 2 2 2 3 4 5 5 5 5 5 5 6 6 6
6 4 2 1 4 6 7 9 11 13 14 15 15 16 17 18 18 17 17 16 15 15 14 12 11 10 9 7 6 4 3 1 1 1 2 3 3 3 3 4 5 6 6 6 6 6 7 7 8
9 7 4 2 3 4 6 7 10 12 13 14 15 15 16 17 18 17 17 16 15 15 14 13 12 10 9 8 7 5 3 2 2 2 3 4 4 4 5 5 6 6 6 7 7 8 8 9 9
11 10 8 6 5 6 7 7 9 11 12 13 14 14 15 15 17 16 16 15 15 14 14 14 13 11 10 8 7 6 5 3 2 2 3 4 4 5 5 6 6 6 7 7 8 9 10 11 11
14 12 11 9 8 7 8 7 8 10 11 12 13 13 13 14 15 16 15 15 14 14 14 13 13 12 10 9 8 7 5 5 3 3 3 3 4 5 5 6 7 7 8 8 9 10 11 11 12
15 14 13 12 11 9 9 8 8 9 10 10 11 11 12 13 14 15 14 14 14 14 14 13 13 12 11 10 9 8 7 6 5 5 4 5 5 6 7 8 9 9 10 10 11 12 12 12 12
16 15 15 14 13 11 10 10 9 8 9 9 10 11 12 13 14 14 13 13 14 14 14 14 14 13 12 12 11 9 7 7 6 6 6 6 6 7 8 9 9 10 11 11 11 12 13 13 14
18 16 16 15 14 13 11 11 10 8 9 9 10 10 11 12 13 13 13 13 14 14 14 14 14 14 13 12 12 11 9 8 7 7 7 7 7 8 9 10 10 11 12 12 12 12 13 14 15
19 18 17 17 16 15 13 13 11 9 10 10 9 9 10 10 11 11 12 12 13 13 14 15 14 14 13 13 12 12 11 9 8 7 7 8 8 9 9 11 12 12 13 14 14 14 14 15 16
21 20 19 18 18 17 15 13 12 11 11 10 9 9 9 9 10 11 11 11 12 13 14 14 15 14 14 13 13 12 12 10 9 8 8 8 8 9 10 11 12 12 13 14 14 15 16 16 16
22 22 21 20 19 17 16 14 13 12 10 10 9 8 8 9 10 11 11 11 12 13 13 14 14 14 14 14 13 13 13 12 10 10 9 9 10 10 11 12 12 13 13 14 15 15 16 16 17
23 23 22 22 21 19 18 15 13 12 10 9 9 8 9 10 11 11 11 11 12 13 13 14 15 14 14 14 14 14 14 13 11 11 11 11 11 11 11 12 12 13 13 14 15 15 15 16 16
25 24 24 24 22 20 19 17 14 13 12 12 11 11 11 11 12 12 12 12 13 13 13 14 15 14 14 15 15 15 15 14 14 12 12 12 12 12 12 13 13 13 14 14 15 16 17 17 18
Wind_Direction
58 56 53 51 53 51 51 52 51 50 49 51 54 53 52 52 53 54 55 56 60 66 70 72 73 74 74 74 77 78 73 72 78 81 79 76 74 76 80 84 92 104 117 122 126 125 133 133 135
57 55 53 50 51 51 52 51 50 48 47 49 51 50 47 49 51 52 54 57 61 69 74 75 75 73 72 74 76 76 72 72 77 81 80 77 78 79 83 86 93 100 112 120 122 117 128 135 142
55 53 51 50 50 52 52 51 49 46 45 48 49 47 45 46 47 49 53 58 65 73 77 79 77 76 75 76 78 74 70 70 78 83 81 80 80 79 82 85 90 96 109 113 117 113 121 128 134
56 54 51 51 49 52 53 52 49 46 44 45 45 44 42 42 45 48 54 56 66 75 79 79 79 80 80 80 79 76 73 71 79 84 84 83 82 80 83 90 91 95 107 112 117 121 121 124 130
55 54 54 51 51 52 52 51 49 46 43 43 45 43 40 40 45 49 53 55 60 70 76 78 80 83 84 82 79 78 79 77 78 82 81 82 82 83 88 90 91 96 105 109 116 116 114 122 129
55 55 55 53 50 50 51 50 48 45 42 41 43 43 40 39 43 50 55 56 59 67 75 78 79 80 80 81 81 82 84 84 81 80 78 81 83 89 94 95 98 96 99 104 104 109 113 123 125
55 53 54 53 50 49 50 49 46 44 43 41 40 41 40 38 43 50 57 56 56 60 69 78 76 79 80 80 80 83 85 87 85 82 79 81 85 85 92 93 93 90 94 101 108 113 110 116 123
57 55 55 55 52 51 50 49 45 42 41 40 39 39 39 37 39 47 52 54 52 52 58 68 70 75 77 79 82 85 87 90 90 89 83 82 86 87 90 98 94 96 100 104 111 111 109 115 116
58 56 56 57 54 50 49 49 44 40 41 40 40 40 39 38 40 46 48 50 50 49 51 60 61 65 68 73 79 88 88 90 91 89 83 83 88 93 94 100 103 101 108 103 111 112 112 116 111
61 59 56 57 54 49 48 46 42 39 39 39 40 39 38 37 41 43 45 47 44 43 45 52 51 53 62 70 79 85 86 91 91 91 89 91 94 96 100 104 108 103 108 104 104 109 113 119 117
65 60 59 58 56 51 48 44 41 41 40 38 38 39 39 39 40 40 42 44 42 40 40 45 50 51 52 65 76 81 84 88 90 93 95 92 98 100 103 106 113 116 118 115 111 114 114 121 123
65 65 65 62 58 53 48 43 40 39 38 36 37 37 38 38 38 37 38 40 41 41 41 46 54 53 52 60 73 81 85 87 92 93 96 97 103 105 106 106 116 122 123 124 123 123 123 121 119
69 69 68 63 57 53 47 42 38 36 35 35 35 36 38 37 35 35 36 36 37 41 41 44 48 53 53 63 81 87 91 93 104 104 105 103 106 113 118 115 127 137 137 139 137 130 126 121 117
74 70 68 63 57 51 45 40 36 34 33 33 34 36 35 34 34 35 34 34 36 39 41 43 46 52 50 58 77 80 84 99 107 102 113 110 113 126 126 130 153 148 144 144 144 139 138 137 124
82 69 65 63 57 48 43 40 35 32 29 29 32 35 33 32 32 33 34 34 34 36 40 41 43 43 45 56 63 76 75 83 93 101 115 119 125 145 152 139 151 160 153 155 161 157 166 167 158
92 67 62 59 60 49 41 37 33 27 25 28 33 34 32 31 30 30 32 32 31 35 36 39 40 41 47 52 52 67 67 88 99 112 126 145 157 169 179 176 174 182 187 190 194 197 195 192 196
162 104 72 59 55 47 38 33 30 23 23 27 31 30 29 29 28 28 29 31 32 33 35 36 37 39 41 42 43 46 53 57 349 202 207 207 211 214 210 208 206 205 210 213 221 224 223 224 230
195 172 111 50 40 38 31 29 26 22 23 22 24 25 24 25 26 26 29 32 32 32 34 35 35 37 35 36 36 33 32 28 275 239 225 227 235 243 239 228 222 220 224 230 236 237 238 240 242
205 196 162 27 14 21 22 20 15 17 18 16 17 19 21 19 20 23 25 29 32 32 35 37 36 35 33 34 35 32 25 14 331 270 247 243 245 252 248 241 232 234 236 239 242 243 245 247 250
218 220 223 254 316 348 358 6 6 8 13 13 14 16 18 18 18 18 20 24 27 28 31 35 33 32 31 31 29 25 23 10 328 293 263 252 252 251 248 248 243 243 245 246 248 247 249 256 256
228 229 238 257 280 315 330 342 351 360 5 8 11 12 15 16 17 18 22 24 25 27 28 27 25 25 25 23 22 17 9 347 305 302 281 258 255 255 250 253 253 251 251 255 257 257 258 259 258
231 234 239 250 270 293 308 320 335 344 355 359 3 8 12 13 13 14 21 24 25 24 23 22 20 20 20 15 12 10 2 351 334 318 298 281 269 264 264 268 265 261 261 262 262 263 264 263 261
232 236 240 250 261 273 287 303 327 338 346 352 356 5 9 10 9 12 17 19 21 21 21 20 17 14 13 8 3 1 357 345 332 318 304 290 280 279 276 273 272 269 269 269 266 266 269 267 266
234 235 241 251 258 265 276 290 311 332 341 344 349 359 7 8 8 11 14 15 18 20 19 17 13 11 8 5 3 356 348 339 332 321 307 292 285 281 280 278 276 274 275 275 270 270 272 269 267
234 236 241 249 254 261 272 282 299 318 328 335 342 352 1 6 9 11 13 15 17 16 14 12 9 7 5 2 0 357 346 336 329 323 312 298 291 287 282 278 275 274 276 277 277 275 273 271 269
234 238 244 250 254 259 267 278 291 303 316 325 334 343 352 358 4 8 11 11 10 8 8 8 8 6 5 2 359 355 351 345 339 328 321 309 299 295 289 284 280 275 274 275 276 275 275 273 271
233 236 242 248 253 260 266 274 284 296 308 318 324 331 342 351 357 2 5 6 4 2 2 1 2 2 2 359 356 352 347 344 343 335 323 317 311 304 297 290 287 284 280 278 278 277 276 275 272
233 237 240 245 252 260 266 270 281 290 300 312 317 322 335 346 349 353 357 358 356 355 355 356 357 358 357 355 352 348 346 343 342 338 328 323 320 314 305 297 293 289 285 282 281 278 276 274 273
236 237 242 247 252 259 262 268 278 287 292 301 306 312 322 333 338 341 346 350 350 350 350 350 350 350 351 351 350 347 344 342 340 337 330 323 318 315 312 306 299 296 291 287 285 282 279 277 276
234 237 242 246 251 256 259 265 272 278 284 293 299 302 307 316 326 333 337 341 343 345 345 345 344 345 346 346 346 348 347 344 339 336 331 324 320 316 312 309 303 299 297 293 290 289 286 285 283
Height
5898 5896 5895 5894 5892 5890 5887 5886 5884 5882 5882 5880 5879 5878 5877 5877 5878 5879 5876 5874 5874 5874 5873 5873 5872 5872 5872 5872 5872 5872 5872 5872 5873 5873 5873 5874 5874 5874 5874 5874 5874 5875 5877 5878 5879 5880 5881 5881 5882
5900 5899 5898 5896 5894 5892 5890 5887 5885 5885 5884 5882 5880 5879 5879 5878 5878 5877 5876 5876 5876 5875 5874 5874 5874 5873 5873 5873 5873 5873 5873 5873 5874 5874 5874 5875 5875 5875 5875 5876 5876 5877 5878 5879 5880 5881 5882 5882 5883
5903 5902 5901 5899 5896 5894 5892 5889 5888 5887 5885 5884 5882 5881 5880 5880 5879 5878 5878 5877 5877 5876 5876 5875 5875 5874 5874 5874 5874 5874 5874 5874 5874 5875 5875 5875 5876 5876 5877 5877 5878 5879 5879 5880 5881 5882 5882 5883 5883
5906 5905 5904 5902 5899 5896 5894 5892 5890 5889 5887 5886 5884 5883 5882 5881 5880 5879 5879 5879 5878 5877 5877 5876 5876 5875 5875 5875 5875 5875 5876 5876 5875 5876 5876 5876 5877 5877 5878 5878 5879 5880 5880 5881 5882 5882 5883 5883 5884
5909 5908 5906 5904 5901 5899 5896 5894 5892 5891 5890 5888 5886 5885 5884 5883 5882 5881 5880 5880 5879 5879 5878 5877 5877 5876 5876 5876 5876 5876 5876 5877 5877 5877 5877 5877 5878 5879 5879 5880 5880 5881 5881 5882 5883 5883 5884 5884 5885
5913 5910 5909 5906 5904 5901 5899 5896 5894 5893 5892 5891 5889 5888 5887 5885 5884 5883 5882 5881 5880 5879 5879 5878 5878 5878 5877 5877 5877 5877 5877 5878 5878 5878 5878 5878 5879 5880 5881 5881 5882 5882 5883 5883 5883 5884 5885 5885 5886
5915 5913 5910 5909 5906 5904 5902 5899 5898 5896 5895 5894 5892 5890 5888 5887 5886 5884 5883 5882 5881 5880 5879 5879 5879 5878 5878 5878 5878 5878 5878 5879 5879 5879 5879 5880 5881 5881 5882 5883 5883 5883 5884 5884 5885 5885 5886 5886 5887
5917 5916 5912 5911 5909 5907 5905 5903 5901 5900 5898 5897 5895 5892 5890 5889 5888 5886 5884 5883 5882 5881 5881 5880 5879 5879 5879 5879 5879 5879 5879 5880 5880 5880 5881 5881 5882 5882 5883 5884 5884 5884 5885 5885 5885 5886 5887 5887 5888
5919 5918 5915 5913 5912 5911 5908 5906 5905 5903 5901 5899 5897 5895 5893 5891 5889 5887 5886 5885 5884 5882 5881 5881 5880 5880 5880 5880 5880 5880 5880 5881 5881 5881 5882 5882 5883 5883 5884 5884 5885 5885 5886 5886 5886 5887 5887 5888 5888
5921 5919 5918 5916 5915 5913 5912 5910 5908 5906 5903 5901 5899 5897 5895 5893 5891 5889 5887 5886 5884 5883 5882 5881 5881 5881 5881 5881 5881 5881 5881 5882 5882 5882 5882 5883 5883 5884 5885 5885 5886 5886 5887 5887 5887 5888 5888 5889 5890
5922 5921 5920 5918 5917 5916 5914 5912 5911 5909 5906 5904 5902 5900 5897 5895 5893 5891 5889 5887 5886 5884 5883 5883 5882 5881 5881 5881 5881 5882 5882 5882 5883 5883 5883 5884 5884 5885 5885 5886 5887 5887 5888 5888 5888 5889 5889 5890 5890
5925 5923 5922 5921 5919 5918 5917 5915 5913 5911 5909 5907 5904 5902 5900 5897 5895 5892 5890 5888 5886 5885 5884 5884 5883 5883 5882 5882 5882 5882 5883 5883 5883 5883 5884 5884 5885 5885 5886 5887 5887 5888 5889 5889 5890 5890 5891 5891 5891
5926 5926 5924 5923 5921 5920 5919 5917 5916 5913 5911 5909 5907 5905 5902 5899 5896 5894 5891 5889 5888 5886 5885 5884 5884 5884 5883 5883 5883 5883 5883 5883 5884 5884 5884 5885 5885 5886 5887 5887 5887 5888 5889 5890 5890 5891 5891 5892 5892
5928 5927 5926 5924 5923 5922 5921 5919 5918 5916 5914 5912 5909 5907 5904 5901 5898 5895 5893 5891 5889 5887 5886 5885 5884 5884 5884 5883 5883 5883 5883 5884 5884 5884 5885 5885 5886 5886 5887 5887 5888 5888 5889 5890 5890 5891 5892 5892 5893
5929 5929 5928 5926 5925 5924 5923 5922 5920 5918 5916 5914 5911 5909 5906 5903 5900 5897 5895 5893 5891 5889 5888 5886 5885 5884 5884 5883 5883 5884 5884 5884 5885 5885 5885 5886 5886 5886 5887 5887 5888 5889 5889 5890 5891 5891 5892 5892 5893
5930 5930 5929 5928 5927 5926 5926 5924 5922 5920 5918 5916 5913 5911 5908 5905 5903 5900 5897 5895 5892 5891 5889 5888 5887 5885 5885 5884 5884 5884 5884 5885 5885 5885 5885 5886 5886 5886 5887 5887 5888 5889 5889 5890 5891 5891 5892 5892 5893
5930 5930 5930 5929 5928 5927 5927 5925 5924 5922 5920 5918 5915 5913 5910 5907 5905 5902 5899 5897 5894 5892 5891 5889 5888 5887 5886 5885 5885 5884 5884 5885 5885 5885 5885 5886 5886 5886 5887 5887 5888 5888 5889 5890 5891 5891 5892 5892 5893
5930 5930 5930 5930 5929 5929 5928 5927 5926 5924 5922 5920 5917 5915 5912 5909 5907 5904 5901 5899 5896 5894 5892 5891 5889 5888 5886 5886 5885 5885 5885 5885 5885 5885 5885 5885 5886 5886 5886 5887 5887 5888 5889 5889 5890 5891 5891 5892 5892
5930 5930 5930 5931 5930 5930 5929 5928 5927 5925 5923 5921 5919 5916 5914 5911 5908 5906 5903 5900 5898 5895 5894 5892 5891 5889 5888 5887 5886 5885 5885 5885 5885 5885 5885 5885 5885 5886 5886 5886 5887 5887 5888 5889 5889 5890 5890 5890 5891
5929 5930 5930 5930 5930 5930 5929 5928 5927 5926 5925 5923 5920 5917 5915 5912 5910 5907 5904 5901 5899 5897 5895 5893 5892 5890 5889 5888 5887 5886 5885 5885 5885 5885 5885 5885 5885 5885 5885 5885 5886 5886 5887 5887 5888 5888 5889 5889 5889
5928 5929 5930 5930 5930 5929 5929 5929 5928 5927 5925 5923 5921 5918 5916 5913 5911 5908 5905 5903 5900 5898 5896 5895 5893 5891 5890 5889 5887 5887 5886 5885 5884 5884 5884 5884 5884 5884 5884 5884 5885 5885 5885 5886 5886 5886 5887 5887 5887
5926 5927 5928 5929 5929 5929 5930 5929 5928 5927 5926 5924 5922 5919 5917 5914 5911 5909 5906 5904 5901 5899 5897 5895 5893 5892 5890 5889 5888 5887 5886 5885 5884 5884 5883 5883 5883 5883 5883 5883 5883 5883 5884 5884 5884 5884 5884 5884 5884
5925 5926 5927 5927 5928 5928 5928 5928 5929 5927 5926 5924 5922 5920 5918 5915 5912 5910 5907 5905 5902 5900 5898 5896 5894 5892 5891 5889 5888 5887 5886 5885 5884 5883 5882 5882 5882 5882 5882 5882 5882 5882 5882 5882 5881 5881 5881 5881 5881
5923 5924 5925 5925 5926 5927 5927 5927 5927 5926 5925 5924 5922 5920 5918 5916 5913 5910 5908 5905 5903 5901 5899 5897 5895 5893 5891 5889 5888 5886 5885 5884 5883 5882 5882 5881 5881 5880 5880 5880 5880 5880 5880 5879 5879 5878 5878 5878 5878
5920 5922 5923 5923 5924 5925 5925 5925 5926 5926 5924 5923 5922 5920 5918 5916 5913 5911 5908 5906 5904 5902 5900 5898 5896 5894 5892 5890 5888 5886 5885 5883 5882 5881 5880 5880 5879 5879 5878 5878 5878 5878 5877 5877 5876 5876 5875 5875 5875
5917 5919 5921 5922 5922 5923 5923 5923 5925 5924 5923 5922 5921 5920 5918 5916 5914 5911 5909 5907 5904 5903 5901 5898 5896 5894 5892 5890 5888 5886 5884 5882 5881 5880 5879 5878 5878 5877 5876 5876 5876 5875 5875 5874 5873 5873 5872 5872 5871
5913 5915 5918 5919 5919 5920 5921 5922 5923 5922 5922 5921 5920 5919 5917 5915 5913 5911 5909 5907 5905 5903 5901 5899 5897 5894 5892 5890 5887 5885 5883 5881 5879 5878 5877 5876 5876 5875 5874 5873 5873 5872 5871 5870 5870 5869 5868 5868 5867
5911 5913 5914 5915 5916 5917 5918 5919 5921 5920 5920 5920 5919 5918 5916 5915 5913 5911 5909 5907 5905 5903 5901 5898 5896 5894 5892 5889 5887 5884 5882 5880 5878 5877 5876 5874 5874 5873 5872 5871 5870 5869 5867 5867 5866 5865 5864 5863 5863
5907 5909 5910 5912 5913 5914 5915 5919 5919 5919 5918 5918 5917 5916 5915 5914 5912 5910 5908 5906 5904 5902 5900 5898 5896 5894 5891 5889 5886 5884 5881 5879 5877 5876 5874 5873 5872 5870 5869 5868 5867 5865 5864 5863 5862 5861 5860 5859 5858
5902 5905 5907 5909 5910 5911 5912 5917 5916 5916 5916 5916 5916 5915 5914 5912 5911 5909 5907 5905 5903 5901 5899 5897 5895 5893 5890 5888 5885 5883 5881 5878 5876 5874 5872 5871 5870 5868 5867 5865 5864 5862 5861 5859 5858 5857 5856 5855 5854